AX317 Weather Reports


Display with metric or nautical units.
time (UTC)temp
F
wind
direction
speed
MPH
gust
MPH
rain 1hr
in
rain 24hr
in
rain mn
in
humidity
%
barometer
mb
20260504140340 59 257 0.0 0.0 0.00 0.00 0.00 48 1005.1
20260504130341 56 98 0.0 0.0 0.00 0.00 0.00 53 1006.4
20260504110339 44 280 0.0 0.0 0.00 0.00 0.00 79 1007.1
20260504100339 40 239 0.0 0.0 0.00 0.00 0.00 89 1007.1
20260504081839 39 290 0.0 0.0 0.00 0.00 0.00 87 1007.1
20260504081340 39 290 0.0 0.0 0.00 0.00 0.00 87 1007.1
20260504080839 39 9 0.0 0.0 0.00 0.00 0.00 87 1007.1
20260504080339 39 270 0.0 0.0 0.00 0.00 0.00 87 1007.1
20260504070339 38 326 0.0 0.0 0.00 0.00 0.00 86 1007.1
20260504050339 38 265 0.0 0.0 0.00 0.00 0.00 79 1007.1
20260504045839 38 294 0.0 0.0 0.00 0.00 0.00 79 1007.5
20260504045339 38 193 0.0 0.0 0.00 0.00 0.00 79 1007.5
20260504044839 38 4 0.0 0.0 0.00 0.00 0.00 79 1007.5
20260504044339 37 322 0.0 0.0 0.00 0.00 0.00 79 1007.5
20260504043839 37 261 0.0 0.0 0.00 0.00 0.00 79 1007.5
20260504043340 37 297 0.0 0.0 0.00 0.00 0.00 79 1007.5
20260504042840 37 287 0.0 0.0 0.00 0.00 0.00 78 1007.5
20260504042342 37 175 0.0 0.0 0.00 0.00 0.00 78 1007.5
20260504041840 37 241 0.0 0.0 0.00 0.00 0.00 78 1007.5
20260504041339 37 288 0.0 0.0 0.00 0.00 0.00 78 1007.5
20260504040840 37 274 0.0 0.0 0.00 0.00 0.00 78 1007.5
20260504040345 37 237 0.0 0.0 0.00 0.00 0.00 78 1007.5
20260504035839 37 257 0.0 0.0 0.00 0.00 0.00 78 1007.5
20260504035339 37 114 0.0 0.0 0.00 0.00 0.00 78 1007.5
20260504034839 37 212 0.0 0.0 0.00 0.00 0.00 78 1007.5
20260504034339 37 260 0.0 0.0 0.00 0.00 0.00 79 1007.1
20260504033839 37 260 0.0 0.0 0.00 0.00 0.00 79 1007.1
20260504033339 37 223 0.0 0.0 0.00 0.00 0.00 79 1007.5
20260504032840 36 235 0.0 0.0 0.00 0.00 0.00 79 1007.5
20260504032340 36 216 0.0 0.0 0.00 0.00 0.00 79 1007.5
20260504031839 36 230 0.0 0.0 0.00 0.00 0.00 79 1007.1
20260504031346 35 293 0.0 0.0 0.00 0.00 0.00 78 1007.1
20260504030839 36 244 0.0 0.0 0.00 0.00 0.00 78 1007.5
20260504030339 36 261 0.0 0.0 0.00 0.00 0.00 77 1007.1
20260504025840 36 250 0.0 0.0 0.00 0.00 0.00 76 1007.5
20260504025349 36 291 0.0 0.0 0.00 0.00 0.00 76 1007.5
20260504024839 36 235 0.0 0.0 0.00 0.00 0.00 75 1007.1
20260504024341 37 300 0.0 0.0 0.00 0.00 0.00 75 1007.1
20260504023840 37 286 0.0 0.0 0.00 0.00 0.00 74 1007.5
20260504023340 37 299 0.0 0.0 0.00 0.00 0.00 74 1007.5
20260504022839 37 280 0.0 0.0 0.00 0.00 0.00 73 1007.5
20260504022339 38 294 0.0 0.0 0.00 0.00 0.00 73 1007.5
20260504021839 38 274 0.0 0.0 0.00 0.00 0.00 72 1007.1
20260504021339 38 300 0.0 0.0 0.00 0.00 0.00 72 1007.1
20260504020840 38 278 0.0 0.0 0.00 0.00 0.00 71 1007.1
20260504020340 39 274 0.0 0.0 0.00 0.00 0.00 70 1007.1
20260504015840 39 286 0.0 0.0 0.00 0.00 0.00 69 1007.1
20260504015340 40 217 0.0 0.0 0.00 0.00 0.00 68 1007.1
20260504014842 40 305 0.0 0.0 0.00 0.00 0.00 67 1007.1
20260504014340 40 277 0.0 0.0 0.00 0.00 0.00 65 1006.8
20260504013839 40 254 0.0 0.0 0.00 0.00 0.00 64 1006.8
20260504013339 40 275 0.0 0.0 0.00 0.00 0.00 61 1006.8
20260504012839 41 286 0.0 0.0 0.00 0.00 0.00 62 1006.8
20260504012339 41 265 0.0 0.0 0.00 0.00 0.00 61 1006.8
20260504011839 42 288 0.0 0.0 0.00 0.00 0.00 60 1006.4
20260504011339 42 254 0.0 0.0 0.00 0.00 0.00 59 1006.4
20260504010839 42 275 0.0 0.0 0.00 0.00 0.00 59 1006.4
20260504010339 43 268 0.0 0.0 0.00 0.00 0.00 58 1006.1
20260504005839 43 284 0.0 0.0 0.00 0.00 0.00 56 1006.1
20260504005339 44 294 0.0 0.0 0.00 0.00 0.00 54 1006.1
20260504004839 44 267 0.0 0.0 0.00 0.00 0.00 53 1006.1
20260504004341 45 269 0.0 0.0 0.00 0.00 0.00 52 1006.1
20260504003841 45 271 0.0 0.0 0.00 0.00 0.00 52 1006.1
20260504003340 46 254 0.0 0.0 0.00 0.00 0.00 50 1005.8
20260504002839 46 250 0.0 0.0 0.00 0.00 0.00 50 1005.8
20260504002340 47 248 0.0 0.0 0.00 0.00 0.00 47 1005.8
20260504001840 47 306 0.0 0.0 0.00 0.00 0.00 47 1005.8
20260504001339 48 283 0.0 0.0 0.00 0.00 0.00 46 1005.8
20260504000839 48 259 0.0 0.0 0.00 0.00 0.00 45 1005.8
20260504000339 48 254 0.0 0.0 0.00 0.00 0.00 44 1005.8
20260503235839 49 317 0.0 0.0 0.00 0.00 0.00 43 1005.4
20260503235339 49 288 0.0 0.0 0.00 0.00 0.00 44 1005.4
20260503234841 49 320 0.0 0.0 0.00 0.00 0.00 43 1005.4
20260503234339 49 309 0.0 0.0 0.00 0.00 0.00 42 1005.4
20260503233839 50 273 0.0 0.0 0.00 0.00 0.00 43 1005.4
20260503233339 50 288 0.0 0.0 0.00 0.00 0.00 43 1005.4
20260503232839 50 332 0.0 0.0 0.00 0.00 0.00 42 1005.4
20260503232339 50 277 0.0 0.0 0.00 0.00 0.00 43 1005.4
20260503231839 50 262 0.0 0.0 0.00 0.00 0.00 43 1005.4
20260503231340 51 297 0.0 0.0 0.00 0.00 0.00 45 1005.4
20260503230840 51 321 0.0 0.0 0.00 0.00 0.00 41 1005.4
20260503230339 51 327 0.0 0.0 0.00 0.00 0.00 41 1005.4
20260503225839 52 304 0.0 0.0 0.00 0.00 0.00 41 1005.4
20260503225339 52 288 0.0 0.0 0.00 0.00 0.00 41 1005.4
20260503224839 52 335 0.0 0.0 0.00 0.00 0.00 41 1005.4
20260503224340 52 34 0.0 0.0 0.00 0.00 0.00 40 1005.4
20260503223841 52 25 0.0 0.0 0.00 0.00 0.00 40 1005.1
20260503223339 52 343 0.0 0.0 0.00 0.00 0.00 40 1005.4
20260503222839 53 269 0.0 0.0 0.00 0.00 0.00 40 1005.1
20260503222339 53 323 0.0 0.0 0.00 0.00 0.00 39 1005.1
20260503221840 52 346 0.0 0.0 0.00 0.00 0.00 39 1005.1
20260503221339 53 283 0.0 0.0 0.00 0.00 0.00 38 1005.1
20260503220841 53 288 0.0 0.0 0.00 0.00 0.00 38 1005.4
20260503220339 53 280 0.0 0.0 0.00 0.00 0.00 38 1005.4
20260503215839 53 348 0.0 0.0 0.00 0.00 0.00 38 1005.1
20260503215340 52 0 0.0 0.0 0.00 0.00 0.00 39 1005.1
20260503214839 52 223 0.0 0.0 0.00 0.00 0.00 39 1005.1
20260503214340 53 217 0.0 0.0 0.00 0.00 0.00 38 1005.1
20260503213840 54 350 0.0 0.0 0.00 0.00 0.00 37 1005.1
20260503213339 53 275 0.0 0.0 0.00 0.00 0.00 38 1005.1
20260503212839 52 358 0.0 0.0 0.00 0.00 0.00 40 1005.1
20260503212339 52 258 0.0 0.0 0.00 0.00 0.00 39 1005.1
20260503211840 52 301 0.0 0.0 0.00 0.00 0.00 41 1005.1
20260503211339 53 343 0.0 0.0 0.00 0.00 0.00 40 1005.1
20260503210839 52 40 0.0 0.0 0.00 0.00 0.00 41 1005.1
20260503210339 52 25 0.0 0.0 0.00 0.00 0.00 40 1005.1
20260503205839 52 343 0.0 0.0 0.00 0.00 0.00 40 1005.1
20260503205339 53 295 0.0 0.0 0.00 0.00 0.00 39 1005.1
20260503204840 52 329 0.0 0.0 0.00 0.00 0.00 41 1005.1
20260503204339 51 324 0.0 0.0 0.00 0.00 0.00 42 1005.1
20260503203839 52 13 0.0 0.0 0.00 0.00 0.00 43 1005.1
20260503203339 52 344 0.0 0.0 0.00 0.00 0.00 42 1005.1
20260503202840 52 359 0.0 0.0 0.00 0.00 0.00 41 1005.1
20260503202343 52 277 0.0 0.0 0.00 0.00 0.00 40 1005.1
20260503201840 53 357 0.0 0.0 0.00 0.00 0.00 38 1005.1
20260503201340 52 291 0.0 0.0 0.00 0.00 0.00 40 1005.1
20260503200839 51 5 0.0 0.0 0.00 0.00 0.00 40 1005.1
20260503200340 51 282 0.0 0.0 0.00 0.00 0.00 39 1005.1
20260503195839 52 281 0.0 0.0 0.00 0.00 0.00 40 1005.1
20260503195340 52 327 0.0 0.0 0.00 0.00 0.00 40 1005.1
20260503194840 52 255 0.0 0.0 0.00 0.00 0.00 39 1005.1
20260503194339 53 69 0.0 0.0 0.00 0.00 0.00 39 1005.1
20260503193839 53 331 0.0 0.0 0.00 0.00 0.00 39 1005.4
20260503193344 51 337 0.0 0.0 0.00 0.00 0.00 39 1005.4
20260503192839 51 338 0.0 0.0 0.00 0.00 0.00 40 1005.1
20260503192341 51 9 0.0 0.0 0.00 0.00 0.00 41 1005.1
20260503191839 52 89 0.0 0.0 0.00 0.00 0.00 40 1005.1
20260503191341 51 0 0.0 0.0 0.00 0.00 0.00 41 1005.1
20260503190840 51 343 0.0 0.0 0.00 0.00 0.00 41 1005.4
20260503190340 51 311 0.0 0.0 0.00 0.00 0.00 42 1005.4
20260503185839 50 36 0.0 0.0 0.00 0.00 0.00 41 1005.4
20260503185339 51 340 0.0 0.0 0.00 0.00 0.00 42 1005.4
20260503184839 50 26 0.0 0.0 0.00 0.00 0.00 43 1005.4
20260503184340 50 305 0.0 0.0 0.00 0.00 0.00 44 1005.4
20260503183839 51 325 0.0 0.0 0.00 0.00 0.00 43 1005.4
20260503182839 51 303 0.0 0.0 0.00 0.00 0.00 42 1005.1
20260503182340 52 359 0.0 0.0 0.00 0.00 0.00 42 1005.1
20260503181840 53 350 0.0 0.0 0.00 0.00 0.00 43 1005.1
20260503181339 53 328 0.0 0.0 0.00 0.00 0.00 42 1005.1
20260503180840 51 277 0.0 0.0 0.00 0.00 0.00 43 1005.1
20260503180340 51 299 0.0 0.0 0.00 0.00 0.00 43 1004.7
20260503175839 51 330 0.0 0.0 0.00 0.00 0.00 42 1004.7
20260503175341 51 243 0.0 0.0 0.00 0.00 0.00 40 1004.7
20260503174839 52 356 0.0 0.0 0.00 0.00 0.00 40 1004.7
20260503174339 52 215 0.0 0.0 0.00 0.00 0.00 40 1004.7
20260503173839 51 322 0.0 0.0 0.00 0.00 0.00 39 1004.7
20260503173339 51 350 0.0 0.0 0.00 0.00 0.00 40 1005.1
20260503172839 51 333 0.0 0.0 0.00 0.00 0.00 40 1004.7
20260503172343 51 2 0.0 0.0 0.00 0.00 0.00 39 1004.7
20260503171840 52 325 0.0 0.0 0.00 0.00 0.00 39 1004.7
20260503171340 53 27 0.0 0.0 0.00 0.00 0.00 37 1004.7
20260503170839 53 328 0.0 0.0 0.00 0.00 0.00 37 1004.7
20260503170339 51 3 0.0 0.0 0.00 0.00 0.00 39 1005.1
20260503150840 50 237 0.0 0.0 0.00 0.00 0.00 48 1005.4
20260503150340 49 4 0.0 0.0 0.00 0.00 0.00 49 1005.4